[[{"header":{"parameterUnit":"m.s-1","parameterCategory":1,"la1":30.2991,"la2":30.254,"lo1":-89.0895,"lo2":-89.0444,"dy":0.0017,"dx":0.0017,"nx":28,"ny":28,"refTime":"2023-10-26T21:00:00:Z","depth":0,"parameterNumber":2,"parameterNumberName":"U-component_of_WINDS"},"data":[0,0,0,0,0,0,0,0,0,0,0,0,0,0,0,0,0,0,0,0,0,0,0,0,0,0,0,0,0,0,0,0,0,0,0,0,0,0,0,0,0,0,0,0,0,0,0,0,0,0,0,0,0,0,0,0,0,0,-5.3207,-5.3208,0,-5.3278,-5.3279,-5.3279,-5.3223,-5.3221,-5.3218,-5.3216,-5.3285,-5.3289,-5.3293,0,0,0,0,0,0,0,0,0,0,0,0,0,-5.3023,-5.3027,-5.3207,-5.3208,-5.3209,-5.3278,-5.3279,-5.328,-5.3224,-5.3221,-5.3218,-5.3215,-5.3284,-5.3289,-5.3294,0,0,0,0,0,0,0,0,0,0,0,0,0,-5.3099,-5.3028,-5.3207,-5.3189,-5.3188,-5.3278,-5.3279,-5.328,-5.3224,-5.3221,-5.3217,-5.3214,-5.3283,-5.3288,-5.3294,-5.3404,0,0,-5.3313,-5.3316,0,0,0,0,0,0,0,0,-5.3095,-5.3106,-5.3191,-5.3191,-5.319,-5.3238,-5.3239,-5.3321,-5.3225,-5.3211,-5.3216,-5.3212,-5.3272,-5.3279,-5.33,-5.3407,-5.341,-5.3314,-5.3317,-5.332,-5.3322,0,0,0,0,0,0,0,-5.309,-5.3103,-5.3235,-5.3192,-5.3192,-5.3178,-5.3185,-5.3254,-5.3261,-5.3212,-5.3208,-5.3217,-5.3271,-5.3294,-5.3301,-5.3411,-5.3313,-5.3319,-5.3323,-5.3325,-5.3613,-5.3617,0,0,0,0,0,0,-5.3086,-5.3099,-5.3233,-5.3237,-5.3133,-5.3184,-5.3192,-5.3226,-5.326,-5.3261,-5.322,-5.3214,-5.3286,-5.3294,-5.3304,-5.3434,-5.332,-5.3326,-5.3329,-5.3609,-5.3614,-5.3618,0,0,0,0,0,0,-5.3083,-5.3099,-5.323,-5.3167,-5.3183,-5.3191,-5.323,-5.3229,-5.3252,-5.3266,-5.3267,-5.3242,-5.3283,-5.3295,-5.338,-5.3435,-5.3328,-5.3334,-5.3604,-5.361,-5.3616,-5.3695,0,0,0,0,0,0,-5.3078,-5.3098,-5.3139,-5.3168,-5.3186,-5.3305,-5.3234,-5.3233,-5.3263,-5.3256,-5.3287,-5.3289,-5.3281,-5.3371,-5.3386,-5.3442,-5.3339,-5.3599,-5.3607,-5.3614,-5.3687,-5.3703,-5.3716,0,0,0,0,0,-5.3071,-5.3158,-5.3142,-5.3158,-5.3238,-5.3308,-5.3319,-5.3309,-5.3268,-5.331,-5.3319,-5.3288,-5.3428,-5.338,-5.3396,-5.3455,-5.3596,-5.3605,-5.3613,-5.3681,-5.37,-5.3716,0,0,0,0,0,0,-5.3133,-5.3161,-5.3143,-5.3242,-5.3274,-5.3299,-5.335,-5.3329,-5.3372,-5.3363,-5.3349,-5.3357,-5.3446,-5.346,-5.3406,-5.3564,-5.3505,-5.3518,-5.3551,-5.3569,-5.3583,-5.3577,-5.3344,0,0,0,0,0,-5.3158,-5.3214,-5.3235,-5.332,-5.3337,-5.3342,-5.3372,-5.3362,-5.3394,-5.3406,-5.3422,-5.3453,-5.3504,-5.3538,-5.3586,-5.3691,-5.3697,-5.3739,-5.3754,-5.3766,-5.3776,-5.3833,-5.3852,-5.3648,-5.3647,-5.3647,0,0,-5.321,-5.3233,-5.3268,-5.3333,-5.3356,-5.3414,-5.3353,-5.3416,-5.3458,-5.3416,-5.3496,-5.351,-5.3544,-5.364,-5.3683,-5.3654,-5.3835,-5.3777,-5.3786,-5.379,-5.3844,-5.3864,-5.3881,-5.3654,-5.3653,-5.3652,0,0,-5.3334,-5.3357,-5.343,-5.3456,-5.3493,-5.3496,-5.3515,-5.3545,-5.3552,-5.3634,-5.3604,-5.3655,-5.3743,-5.3769,-5.3793,-5.3932,-5.3905,-5.3949,-5.4022,-5.4079,-5.4095,-5.4109,-5.4158,-5.4176,-5.3959,-5.396,-5.396,0,-5.3393,-5.3479,-5.3471,-5.3537,-5.3566,-5.3534,-5.3608,-5.3633,-5.3684,-5.3705,-5.3673,-5.3784,-5.3805,-5.3907,-5.3941,-5.3963,-5.3983,-5.3943,-5.4093,-5.4108,-5.4121,-5.4167,-5.4186,-5.3964,-5.3964,-5.3963,-5.3963,0,-5.355,-5.361,-5.3665,-5.3717,-5.3753,-5.3823,-5.3826,-5.3864,-5.3853,-5.386,-5.3945,-5.3969,-5.4022,-5.4046,-5.4035,-5.4147,-5.4128,-5.4096,-5.4035,-5.4145,-5.4188,-5.4206,-5.3971,-5.397,-5.3968,-5.3967,0,0,-5.3709,-5.3759,-5.3779,-5.3803,-5.3844,-5.389,-5.396,-5.4013,-5.4046,-5.4083,-5.414,-5.4218,-5.4189,-5.4217,-5.421,-5.4259,-5.4368,-5.422,-5.4221,-5.4246,-5.4493,-5.4516,-5.4537,-5.4352,-5.4355,-5.4358,-5.449,0,-5.3834,-5.3955,-5.3952,-5.4064,-5.412,-5.4093,-5.4154,-5.4185,-5.4195,-5.4244,-5.4254,-5.431,-5.4267,-5.4284,-5.4333,-5.4344,-5.4417,-5.4335,-5.4404,-5.4407,-5.4393,-5.4559,-5.4583,-5.4706,-5.4507,-5.451,-5.4512,0,-5.3994,-5.4039,-5.4158,-5.4193,-5.4216,-5.427,-5.432,-5.4368,-5.4404,-5.4408,-5.4442,-5.4428,-5.4498,-5.444,-5.4538,-5.4482,-5.4511,-5.4522,-5.4527,-5.453,-5.4464,-5.4565,-5.4745,-5.4763,-5.4539,-5.4536,-5.4535,0,-5.4097,-5.4187,-5.427,-5.4292,-5.4335,-5.4374,-5.4394,-5.4427,-5.446,-5.4504,-5.4526,-5.4577,-5.4605,-5.4646,-5.4646,-5.4603,-5.4745,-5.4686,-5.4749,-5.4749,-5.4776,-5.4774,-5.4961,-5.48,-5.4799,-5.4799,-5.4799,0,-5.4235,-5.4308,-5.4317,-5.4368,-5.445,-5.4447,-5.4528,-5.4544,-5.4575,-5.4628,-5.4609,-5.4659,-5.4657,-5.4709,-5.471,-5.4791,-5.4804,-5.4808,-5.4807,-5.4809,-5.4808,-5.4825,-5.4815,-5.4804,-5.4803,-5.4802,-5.4801,0,-5.4361,-5.4371,-5.4459,-5.4495,-5.4505,-5.4564,-5.4594,-5.4643,-5.4653,-5.4721,-5.4737,-5.4752,-5.4812,-5.4817,-5.4887,-5.4887,-5.4985,-5.4975,-5.4973,-5.497,-5.5032,-5.5025,-5.5234,-5.5261,-5.5084,-5.5086,-5.5087,0,-5.4447,-5.4503,-5.4546,-5.4581,-5.4604,-5.466,-5.4695,-5.4695,-5.4732,-5.478,-5.4823,-5.4882,-5.4929,-5.5027,-5.5043,-5.5097,-5.5087,-5.5157,-5.5095,-5.5095,-5.5087,-5.5082,-5.5088,-5.5168,-5.517,-5.5171,-5.5173,0,-5.4598,-5.4601,-5.4652,-5.4707,-5.4749,-5.4791,-5.4831,-5.4861,-5.4866,-5.4909,-5.4971,-5.5008,-5.5081,-5.5139,-5.5193,-5.5212,-5.5194,-5.5193,-5.521,-5.521,-5.5206,-5.5208,-5.5003,-5.5187,-5.5186,-5.5184,-5.5184,-5.5183,-5.4706,-5.4755,-5.4793,-5.4852,-5.4883,-5.4921,-5.4969,-5.4986,-5.5038,-5.5098,-5.5096,-5.5165,-5.5202,-5.5272,-5.5297,-5.5351,-5.5327,-5.5352,-5.5358,-5.5364,-5.537,-5.52,-5.5361,-5.5361,-5.536,-5.536,-5.536,0,-5.4855,-5.4879,-5.4933,-5.499,-5.5037,-5.5018,-5.5062,-5.5102,-5.5163,-5.52,-5.5248,-5.5321,-5.5378,-5.5402,-5.5459,-5.5497,-5.549,-5.5512,-5.5508,-5.5513,-5.5388,-5.5367,-5.5517,-5.5517,-5.5517,-5.5517,-5.5517,-5.5517,-5.4937,-5.502,-5.5028,-5.5126,-5.515,-5.5218,-5.5245,-5.5281,-5.5311,-5.5393,-5.5442,-5.5457,-5.549,-5.5549,-5.5602,-5.5607,-5.5628,-5.5653,-5.5655,-5.5537,-5.5521,-5.5506,-5.5486,-5.5659,-5.5659,-5.5775,-5.5776,-5.5777]},{"header":{"parameterUnit":"m.s-1","parameterCategory":1,"la1":30.2991,"la2":30.254,"lo1":-89.0895,"lo2":-89.0444,"dy":0.0017,"dx":0.0017,"nx":28,"ny":28,"refTime":"2023-10-26T21:00:00:Z","depth":0,"parameterNumber":3,"parameterNumberName":"V-component_of_WINDS"},"data":[0,0,0,0,0,0,0,0,0,0,0,0,0,0,0,0,0,0,0,0,0,0,0,0,0,0,0,0,0,0,0,0,0,0,0,0,0,0,0,0,0,0,0,0,0,0,0,0,0,0,0,0,0,0,0,0,0,0,2.0556,2.0556,0,2.0582,2.0582,2.0582,2.0587,2.0587,2.0587,2.0587,2.061,2.061,2.0611,0,0,0,0,0,0,0,0,0,0,0,0,0,2.051,2.0511,2.0556,2.0556,2.0556,2.0582,2.0582,2.0582,2.0587,2.0587,2.0587,2.0586,2.0609,2.061,2.0611,0,0,0,0,0,0,0,0,0,0,0,0,0,2.0532,2.0511,2.0556,2.0562,2.0563,2.0581,2.0582,2.0582,2.0587,2.0587,2.0587,2.0586,2.0609,2.061,2.0611,2.0625,0,0,2.0615,2.0616,0,0,0,0,0,0,0,0,2.0531,2.0534,2.0561,2.0562,2.0563,2.0581,2.0574,2.0596,2.0587,2.0578,2.0587,2.0586,2.06,2.0602,2.0607,2.0626,2.0627,2.0615,2.0616,2.0616,2.0617,0,0,0,0,0,0,0,2.0529,2.0533,2.0566,2.0561,2.0562,2.0563,2.0566,2.0578,2.059,2.0579,2.0579,2.0582,2.06,2.0606,2.0608,2.0627,2.0615,2.0616,2.0617,2.0617,2.066,2.0661,0,0,0,0,0,0,2.0527,2.0532,2.0565,2.0567,2.0546,2.0564,2.0568,2.0575,2.059,2.0592,2.0582,2.0582,2.0604,2.0606,2.0609,2.0627,2.0616,2.0617,2.0618,2.066,2.066,2.0661,0,0,0,0,0,0,2.0526,2.053,2.0564,2.0549,2.0554,2.0566,2.0574,2.0576,2.0582,2.0593,2.0595,2.0586,2.0604,2.0607,2.0621,2.0628,2.0618,2.0619,2.0659,2.066,2.0661,2.0662,0,0,0,0,0,0,2.0525,2.053,2.0535,2.0549,2.0555,2.0577,2.0574,2.0577,2.0584,2.0584,2.0597,2.0599,2.0604,2.062,2.0623,2.0629,2.062,2.0659,2.066,2.066,2.0662,2.0663,2.0664,0,0,0,0,0,2.0523,2.0533,2.0535,2.0539,2.0561,2.0577,2.058,2.0587,2.0584,2.059,2.0598,2.0598,2.0627,2.0621,2.0624,2.0631,2.0658,2.0659,2.066,2.0661,2.0663,2.0664,0,0,0,0,0,0,2.0516,2.0535,2.0537,2.0552,2.0563,2.0578,2.0584,2.0587,2.0598,2.0598,2.0605,2.0608,2.0622,2.0628,2.0622,2.0647,2.0642,2.0644,2.0642,2.0643,2.0645,2.0643,2.0621,0,0,0,0,0,2.0517,2.0529,2.0544,2.0555,2.0561,2.0572,2.0579,2.0584,2.0595,2.0599,2.0608,2.0618,2.063,2.0637,2.0648,2.0663,2.0667,2.067,2.0671,2.0672,2.0673,2.0683,2.0685,2.0664,2.0664,2.0664,0,0,2.0517,2.0529,2.0536,2.0555,2.0564,2.0576,2.0576,2.0588,2.0597,2.0601,2.0616,2.0623,2.0635,2.065,2.0657,2.0656,2.068,2.0673,2.0673,2.0674,2.0685,2.0687,2.0688,2.0665,2.0665,2.0664,0,0,2.0525,2.0535,2.0546,2.0557,2.0571,2.0579,2.0582,2.0597,2.0602,2.0618,2.0622,2.0633,2.0652,2.0661,2.0668,2.0683,2.0685,2.0687,2.0692,2.0702,2.0704,2.0706,2.0712,2.0714,2.0688,2.0688,2.0688,0,2.0523,2.0542,2.0552,2.0565,2.0574,2.058,2.0593,2.0602,2.0619,2.0625,2.0623,2.0649,2.0657,2.0676,2.0681,2.0686,2.069,2.0685,2.0703,2.0705,2.0706,2.0713,2.0715,2.0688,2.0688,2.0688,2.0688,0,2.0541,2.0554,2.0562,2.0581,2.059,2.0603,2.0615,2.0623,2.0628,2.0636,2.0653,2.0664,2.0679,2.0684,2.0687,2.0704,2.0702,2.0702,2.0698,2.0709,2.0715,2.0717,2.0688,2.0688,2.0688,2.0688,0,0,2.0542,2.0569,2.0571,2.0581,2.06,2.061,2.0624,2.064,2.0648,2.066,2.0672,2.069,2.0691,2.0699,2.0704,2.0713,2.0727,2.0712,2.0712,2.0715,2.0747,2.0748,2.0751,2.0728,2.0729,2.0729,2.0747,0,2.0552,2.0578,2.0589,2.0609,2.0623,2.0631,2.0643,2.0656,2.0665,2.0677,2.0686,2.0699,2.0699,2.0704,2.0714,2.0723,2.0733,2.0722,2.074,2.074,2.0737,2.0754,2.0753,2.0769,2.0749,2.0749,2.075,0,2.0567,2.0582,2.0605,2.0625,2.0631,2.0641,2.0659,2.067,2.0686,2.0692,2.0703,2.0708,2.0724,2.072,2.0741,2.0734,2.0742,2.0748,2.0749,2.075,2.0745,2.0756,2.0774,2.0777,2.0753,2.0753,2.0753,0,2.0567,2.0593,2.0611,2.0619,2.0642,2.065,2.0659,2.0675,2.0685,2.0699,2.0706,2.0722,2.0731,2.0743,2.0753,2.0749,2.0774,2.077,2.078,2.078,2.0784,2.0784,2.0804,2.0789,2.0789,2.0789,2.0789,0,2.0577,2.0591,2.0612,2.0622,2.0639,2.0651,2.0667,2.0677,2.0692,2.0705,2.0712,2.0724,2.0737,2.0751,2.0759,2.0776,2.078,2.0785,2.0787,2.0785,2.0784,2.079,2.0789,2.079,2.0789,2.0789,2.0789,0,2.0579,2.0594,2.0614,2.0636,2.0641,2.0653,2.0671,2.0682,2.0693,2.0709,2.0714,2.073,2.0747,2.0759,2.078,2.0785,2.0805,2.0806,2.08,2.0801,2.081,2.081,2.0835,2.084,2.0821,2.0821,2.0821,0,2.0585,2.0596,2.062,2.0631,2.0641,2.0657,2.0669,2.0682,2.0693,2.0714,2.0723,2.0741,2.0756,2.0783,2.0796,2.0813,2.0816,2.0824,2.0818,2.0816,2.0817,2.0816,2.0818,2.0824,2.0824,2.0824,2.0825,0,2.0594,2.0601,2.0618,2.0638,2.0651,2.0667,2.0683,2.0691,2.0707,2.072,2.0738,2.0751,2.0774,2.0792,2.0811,2.0821,2.0826,2.0827,2.083,2.0827,2.0824,2.0827,2.0803,2.0826,2.0826,2.0825,2.0825,2.0825,2.0598,2.061,2.063,2.0648,2.0663,2.0678,2.0691,2.0704,2.072,2.0742,2.0749,2.0769,2.0786,2.0813,2.0823,2.0839,2.0838,2.0842,2.0843,2.0844,2.0845,2.0822,2.0842,2.0842,2.0842,2.0842,2.0842,0,2.0608,2.0623,2.064,2.0663,2.0679,2.0684,2.0703,2.0715,2.0733,2.075,2.0766,2.0789,2.0807,2.0823,2.0843,2.0852,2.0855,2.0857,2.0856,2.0859,2.0844,2.084,2.0855,2.0855,2.0855,2.0855,2.0855,2.0855,2.0615,2.0636,2.0646,2.0675,2.0688,2.071,2.072,2.0735,2.0749,2.0774,2.0791,2.0802,2.0819,2.084,2.0858,2.0862,2.0869,2.0871,2.0876,2.0861,2.086,2.0858,2.0855,2.0872,2.0872,2.0889,2.089,2.089]}]]